Time,TemperatureF,DewpointF,PressureIn,WindDirection,WindDirectionDegrees,WindSpeedMPH,WindSpeedGustMPH,Humidity,HourlyPrecipIn,Conditions,Clouds,dailyrainin,SoftwareType,DateUTC
2013-07-07 00:03:00,74.1,66.4,29.82,South,177,2.0,3.0,77,0.00,,SCT180,0.00,VWS V14.01,2013-07-07 05:03:00,
2013-07-07 00:08:00,74.0,66.7,29.82,South,177,3.0,3.0,78,0.00,,SCT180,0.00,VWS V14.01,2013-07-07 05:08:00,
2013-07-07 00:13:00,73.9,66.6,29.82,SSE,160,2.0,5.0,78,0.00,,SCT180,0.00,VWS V14.01,2013-07-07 05:13:00,
2013-07-07 00:18:00,73.9,66.6,29.81,South,171,0.0,4.0,78,0.00,,SCT180,0.00,VWS V14.01,2013-07-07 05:18:00,
2013-07-07 00:23:00,74.0,66.7,29.81,South,178,3.0,4.0,78,0.00,,SCT180,0.00,VWS V14.01,2013-07-07 05:23:00,
2013-07-07 00:28:00,74.1,66.4,29.81,South,183,4.0,4.0,77,0.00,,SCT180,0.00,VWS V14.01,2013-07-07 05:28:00,
2013-07-07 00:33:00,74.2,66.5,29.81,South,179,3.0,4.0,77,0.00,,SCT180,0.00,VWS V14.01,2013-07-07 05:33:00,
2013-07-07 00:38:00,74.3,66.6,29.81,South,174,2.0,4.0,77,0.00,,SCT180,0.00,VWS V14.01,2013-07-07 05:38:00,
2013-07-07 00:43:00,74.5,66.4,29.81,South,179,5.0,8.0,76,0.00,,SCT180,0.00,VWS V14.01,2013-07-07 05:43:00,
2013-07-07 00:48:00,74.8,66.7,29.81,SSE,152,7.0,7.0,76,0.00,,SCT180,0.00,VWS V14.01,2013-07-07 05:48:00,
2013-07-07 00:53:00,75.0,66.2,29.82,SSW,195,5.0,6.0,74,0.00,,SCT180,0.00,VWS V14.01,2013-07-07 05:53:00,
2013-07-07 00:58:00,75.2,66.3,29.82,SSW,202,4.0,8.0,74,0.00,,SCT180,0.00,VWS V14.01,2013-07-07 05:58:00,
2013-07-07 01:03:00,75.4,66.2,29.82,South,179,6.0,6.0,73,0.00,,SCT180,0.00,VWS V14.01,2013-07-07 06:03:00,
2013-07-07 01:08:00,75.5,66.2,29.82,South,189,7.0,7.0,73,0.00,,SCT180,0.00,VWS V14.01,2013-07-07 06:08:00,
2013-07-07 01:13:00,75.5,65.8,29.82,South,177,5.0,7.0,72,0.00,,SCT180,0.00,VWS V14.01,2013-07-07 06:13:00,
2013-07-07 01:18:00,75.6,65.9,29.82,South,169,6.0,9.0,72,0.00,,SCT180,0.00,VWS V14.01,2013-07-07 06:18:00,
2013-07-07 01:23:00,75.6,65.9,29.82,South,177,7.0,9.0,72,0.00,,SCT180,0.00,VWS V14.01,2013-07-07 06:23:00,
2013-07-07 01:28:00,75.6,65.9,29.82,SSW,195,7.0,7.0,72,0.00,,SCT180,0.00,VWS V14.01,2013-07-07 06:28:00,
2013-07-07 01:33:00,75.5,65.8,29.82,SSE,164,5.0,8.0,72,0.00,,BKN180,0.00,VWS V14.01,2013-07-07 06:33:00,
2013-07-07 01:38:00,75.4,66.2,29.82,SSE,168,4.0,7.0,73,0.00,,BKN180,0.00,VWS V14.01,2013-07-07 06:38:00,
2013-07-07 01:43:00,75.2,66.0,29.82,South,179,5.0,7.0,73,0.00,,BKN180,0.00,VWS V14.01,2013-07-07 06:43:00,
2013-07-07 01:48:00,75.2,66.0,29.82,SSE,168,7.0,7.0,73,0.00,,BKN180,0.00,VWS V14.01,2013-07-07 06:48:00,
2013-07-07 01:53:00,75.1,65.9,29.82,SSE,164,8.0,10.0,73,0.00,,BKN180,0.00,VWS V14.01,2013-07-07 06:53:00,
2013-07-07 01:58:00,75.1,65.5,29.82,South,177,7.0,8.0,72,0.00,,BKN180,0.00,VWS V14.01,2013-07-07 06:58:00,
2013-07-07 02:03:00,75.1,65.5,29.81,SSE,160,5.0,7.0,72,0.00,,BKN180,0.00,VWS V14.01,2013-07-07 07:03:00,
2013-07-07 02:08:00,75.1,65.5,29.82,South,189,5.0,8.0,72,0.00,,BKN180,0.00,VWS V14.01,2013-07-07 07:08:00,
2013-07-07 02:13:00,75.0,65.4,29.82,South,176,8.0,11.0,72,0.00,,BKN180,0.00,VWS V14.01,2013-07-07 07:13:00,
2013-07-07 02:18:00,75.1,65.1,29.82,South,174,5.0,9.0,71,0.00,,BKN180,0.00,VWS V14.01,2013-07-07 07:18:00,
2013-07-07 02:23:00,75.1,65.1,29.81,SSW,193,7.0,8.0,71,0.00,,BKN180,0.00,VWS V14.01,2013-07-07 07:23:00,
2013-07-07 02:28:00,75.1,65.1,29.81,South,181,7.0,8.0,71,0.00,,BKN180,0.00,VWS V14.01,2013-07-07 07:28:00,
2013-07-07 02:33:00,75.0,65.0,29.81,South,187,5.0,10.0,71,0.00,,BKN180,0.00,VWS V14.01,2013-07-07 07:33:00,
2013-07-07 02:38:00,75.0,64.6,29.81,South,189,7.0,8.0,70,0.00,,BKN180,0.00,VWS V14.01,2013-07-07 07:38:00,
2013-07-07 02:43:00,74.9,64.9,29.81,South,170,9.0,9.0,71,0.00,,OVC110,0.00,VWS V14.01,2013-07-07 07:43:00,
2013-07-07 02:48:00,75.0,64.6,29.81,South,187,11.0,11.0,70,0.00,,OVC110,0.00,VWS V14.01,2013-07-07 07:48:00,
2013-07-07 02:53:00,74.9,64.5,29.81,South,177,7.0,11.0,70,0.00,,OVC110,0.00,VWS V14.01,2013-07-07 07:53:00,
2013-07-07 02:58:00,74.9,64.5,29.82,South,177,10.0,13.0,70,0.00,,OVC110,0.00,VWS V14.01,2013-07-07 07:58:00,
2013-07-07 03:03:00,74.9,64.1,29.82,South,178,8.0,10.0,69,0.00,,OVC110,0.00,VWS V14.01,2013-07-07 08:03:00,
2013-07-07 03:08:00,74.8,64.4,29.82,South,184,9.0,12.0,70,0.00,,OVC110,0.00,VWS V14.01,2013-07-07 08:08:00,
2013-07-07 03:13:00,74.8,64.0,29.82,SSW,192,9.0,14.0,69,0.00,,OVC110,0.00,VWS V14.01,2013-07-07 08:13:00,
2013-07-07 03:18:00,74.7,63.9,29.82,SSE,152,11.0,15.0,69,0.00,,OVC110,0.00,VWS V14.01,2013-07-07 08:18:00,
2013-07-07 03:23:00,74.6,63.8,29.82,South,189,8.0,12.0,69,0.00,,OVC110,0.00,VWS V14.01,2013-07-07 08:23:00,
2013-07-07 03:28:00,74.4,63.6,29.82,South,181,14.0,15.0,69,0.00,,OVC110,0.00,VWS V14.01,2013-07-07 08:28:00,
2013-07-07 03:33:00,74.2,63.8,29.83,South,179,10.0,12.0,70,0.00,,OVC100,0.00,VWS V14.01,2013-07-07 08:33:00,
2013-07-07 03:38:00,73.9,63.5,29.83,South,189,6.0,15.0,70,0.00,,OVC100,0.00,VWS V14.01,2013-07-07 08:38:00,
2013-07-07 03:43:00,73.6,63.6,29.83,South,187,7.0,10.0,71,0.00,,OVC100,0.00,VWS V14.01,2013-07-07 08:43:00,
2013-07-07 03:48:00,73.4,63.4,29.83,SSE,161,9.0,12.0,71,0.00,,OVC100,0.00,VWS V14.01,2013-07-07 08:48:00,
2013-07-07 03:53:00,72.9,63.8,29.83,SSE,152,9.0,12.0,73,0.00,,OVC100,0.01,VWS V14.01,2013-07-07 08:53:00,
2013-07-07 03:58:00,72.5,63.8,29.83,South,177,11.0,17.0,74,0.00,,OVC100,0.01,VWS V14.01,2013-07-07 08:58:00,
2013-07-07 04:03:00,73.0,63.5,29.82,SSE,163,13.0,18.0,72,0.00,,OVC100,0.01,VWS V14.01,2013-07-07 09:03:00,
2013-07-07 04:08:00,73.3,63.3,29.83,SSW,198,14.0,19.0,71,0.00,,OVC100,0.01,VWS V14.01,2013-07-07 09:08:00,
2013-07-07 04:13:00,73.5,63.5,29.82,South,183,13.0,16.0,71,0.00,,OVC100,0.01,VWS V14.01,2013-07-07 09:13:00,
2013-07-07 04:18:00,73.6,63.2,29.82,South,170,11.0,14.0,70,0.00,,OVC100,0.01,VWS V14.01,2013-07-07 09:18:00,
2013-07-07 04:23:00,73.6,63.2,29.82,South,177,11.0,18.0,70,0.00,,OVC100,0.01,VWS V14.01,2013-07-07 09:23:00,
2013-07-07 04:28:00,73.5,63.1,29.82,SSW,212,11.0,15.0,70,0.00,,OVC100,0.01,VWS V14.01,2013-07-07 09:28:00,
2013-07-07 04:33:00,73.5,63.1,29.82,South,175,14.0,19.0,70,0.00,,OVC100,0.01,VWS V14.01,2013-07-07 09:33:00,
2013-07-07 04:39:00,73.4,63.4,29.81,SSE,166,16.0,19.0,71,0.00,,OVC100,0.01,VWS V14.01,2013-07-07 09:39:00,
2013-07-07 04:44:00,73.3,63.3,29.81,South,188,18.0,18.0,71,0.00,,BKN110,0.01,VWS V14.01,2013-07-07 09:44:00,
2013-07-07 04:49:00,73.4,63.4,29.81,South,184,18.0,19.0,71,0.00,,BKN110,0.01,VWS V14.01,2013-07-07 09:49:00,
2013-07-07 04:54:00,73.3,63.3,29.81,South,181,13.0,17.0,71,0.00,,BKN110,0.01,VWS V14.01,2013-07-07 09:54:00,
2013-07-07 04:59:00,73.3,63.3,29.81,South,185,16.0,18.0,71,0.00,,BKN110,0.01,VWS V14.01,2013-07-07 09:59:00,
2013-07-07 05:04:00,73.3,63.3,29.81,South,180,18.0,18.0,71,0.00,,BKN110,0.01,VWS V14.01,2013-07-07 10:04:00,
2013-07-07 05:09:00,73.3,63.3,29.81,South,169,12.0,14.0,71,0.00,,BKN110,0.01,VWS V14.01,2013-07-07 10:09:00,
2013-07-07 05:14:00,73.3,63.3,29.81,SSW,197,8.0,16.0,71,0.00,,BKN110,0.01,VWS V14.01,2013-07-07 10:14:00,
2013-07-07 05:19:00,73.4,63.4,29.81,South,183,11.0,17.0,71,0.00,,BKN110,0.01,VWS V14.01,2013-07-07 10:19:00,
2013-07-07 05:24:00,73.4,63.4,29.81,South,182,12.0,17.0,71,0.00,,BKN110,0.01,VWS V14.01,2013-07-07 10:24:00,
2013-07-07 05:29:00,73.5,63.1,29.80,South,177,12.0,19.0,70,0.00,,BKN110,0.01,VWS V14.01,2013-07-07 10:29:00,
2013-07-07 05:34:00,73.6,63.2,29.80,SSW,202,7.0,18.0,70,0.00,,BKN110,0.01,VWS V14.01,2013-07-07 10:34:00,
2013-07-07 05:39:00,73.5,63.1,29.80,South,181,13.0,18.0,70,0.00,,BKN110,0.01,VWS V14.01,2013-07-07 10:39:00,
2013-07-07 05:44:00,73.4,63.4,29.80,SSW,199,13.0,14.0,71,0.00,,BKN110,0.01,VWS V14.01,2013-07-07 10:44:00,
2013-07-07 05:49:00,73.4,63.4,29.80,South,191,14.0,16.0,71,0.00,,BKN110,0.01,VWS V14.01,2013-07-07 10:49:00,
2013-07-07 05:54:00,73.6,63.2,29.80,South,177,15.0,17.0,70,0.00,,BKN110,0.01,VWS V14.01,2013-07-07 10:54:00,
2013-07-07 05:59:00,73.7,63.3,29.81,South,186,7.0,13.0,70,0.00,,BKN110,0.01,VWS V14.01,2013-07-07 10:59:00,
2013-07-07 06:04:00,73.8,63.4,29.80,South,181,9.0,12.0,70,0.00,,BKN110,0.01,VWS V14.01,2013-07-07 11:04:00,
2013-07-07 06:09:00,73.9,63.5,29.80,SSW,202,7.0,12.0,70,0.00,,BKN110,0.01,VWS V14.01,2013-07-07 11:09:00,
2013-07-07 06:14:00,73.9,63.5,29.80,South,176,9.0,12.0,70,0.00,,BKN110,0.01,VWS V14.01,2013-07-07 11:14:00,
2013-07-07 06:19:00,73.8,63.4,29.80,South,189,15.0,15.0,70,0.00,,BKN110,0.01,VWS V14.01,2013-07-07 11:19:00,
2013-07-07 06:24:00,73.7,63.7,29.80,SSW,197,8.0,12.0,71,0.00,,BKN110,0.01,VWS V14.01,2013-07-07 11:24:00,
2013-07-07 06:29:00,73.6,63.6,29.81,SSW,202,7.0,12.0,71,0.00,,BKN110,0.01,VWS V14.01,2013-07-07 11:29:00,
2013-07-07 06:34:00,73.6,63.6,29.81,South,183,7.0,11.0,71,0.00,,SCT250,0.01,VWS V14.01,2013-07-07 11:34:00,
2013-07-07 06:39:00,73.5,63.9,29.81,SSW,192,5.0,10.0,72,0.00,,SCT250,0.01,VWS V14.01,2013-07-07 11:39:00,
2013-07-07 06:44:00,73.5,63.9,29.81,South,184,8.0,12.0,72,0.00,,SCT250,0.01,VWS V14.01,2013-07-07 11:44:00,
2013-07-07 06:49:00,73.5,63.9,29.81,SW,216,11.0,11.0,72,0.00,,SCT250,0.01,VWS V14.01,2013-07-07 11:49:00,
2013-07-07 06:54:00,73.5,63.9,29.80,SSW,193,7.0,11.0,72,0.00,,SCT250,0.01,VWS V14.01,2013-07-07 11:54:00,
2013-07-07 06:59:00,73.6,64.0,29.80,SSW,201,6.0,10.0,72,0.00,,SCT250,0.01,VWS V14.01,2013-07-07 11:59:00,
2013-07-07 07:04:00,73.6,64.0,29.80,SSW,206,7.0,9.0,72,0.00,,SCT250,0.01,VWS V14.01,2013-07-07 12:04:00,
2013-07-07 07:09:00,73.6,64.4,29.80,South,176,6.0,9.0,73,0.00,,SCT250,0.01,VWS V14.01,2013-07-07 12:09:00,
2013-07-07 07:14:00,73.7,64.1,29.80,SSE,159,8.0,13.0,72,0.00,,SCT250,0.01,VWS V14.01,2013-07-07 12:14:00,
2013-07-07 07:19:00,73.7,64.1,29.80,South,169,9.0,9.0,72,0.00,,SCT250,0.01,VWS V14.01,2013-07-07 12:19:00,
2013-07-07 07:24:00,73.8,64.2,29.80,South,186,6.0,10.0,72,0.00,,SCT250,0.01,VWS V14.01,2013-07-07 12:24:00,
2013-07-07 07:29:00,74.0,64.4,29.81,South,191,5.0,9.0,72,0.00,,SCT250,0.01,VWS V14.01,2013-07-07 12:29:00,
2013-07-07 07:34:00,74.2,64.2,29.81,SSW,192,6.0,13.0,71,0.00,,SCT250,0.01,VWS V14.01,2013-07-07 12:34:00,
2013-07-07 07:39:00,74.3,64.7,29.81,SSW,196,6.0,7.0,72,0.00,,SCT250,0.01,VWS V14.01,2013-07-07 12:39:00,
2013-07-07 07:44:00,74.5,64.9,29.81,SSW,201,9.0,9.0,72,0.00,,SCT250,0.01,VWS V14.01,2013-07-07 12:44:00,
2013-07-07 07:49:00,74.8,64.8,29.81,South,175,8.0,10.0,71,0.00,,SCT250,0.01,VWS V14.01,2013-07-07 12:49:00,
2013-07-07 07:54:00,74.9,64.5,29.81,SSW,200,7.0,9.0,70,0.00,,SCT250,0.01,VWS V14.01,2013-07-07 12:54:00,
2013-07-07 07:59:00,75.1,64.7,29.81,South,174,4.0,9.0,70,0.00,,SCT250,0.01,VWS V14.01,2013-07-07 12:59:00,
2013-07-07 08:04:00,75.4,64.9,29.81,SSW,197,4.0,6.0,70,0.00,,SCT250,0.01,VWS V14.01,2013-07-07 13:04:00,
2013-07-07 08:09:00,75.6,65.1,29.81,SSW,208,6.0,11.0,70,0.00,,SCT250,0.01,VWS V14.01,2013-07-07 13:09:00,
2013-07-07 08:14:00,75.7,65.2,29.81,South,179,9.0,12.0,70,0.00,,SCT250,0.01,VWS V14.01,2013-07-07 13:14:00,
2013-07-07 08:20:00,75.8,64.9,29.81,SW,226,5.0,9.0,69,0.00,,SCT250,0.01,VWS V14.01,2013-07-07 13:20:00,
2013-07-07 08:25:00,76.0,65.5,29.81,South,177,8.0,11.0,70,0.00,,SCT250,0.01,VWS V14.01,2013-07-07 13:25:00,
2013-07-07 08:30:00,76.2,65.7,29.81,SSW,197,7.0,10.0,70,0.00,,SCT250,0.01,VWS V14.01,2013-07-07 13:30:00,
2013-07-07 08:35:00,76.4,66.3,29.80,South,177,10.0,12.0,71,0.00,,SCT250,0.01,VWS V14.01,2013-07-07 13:35:00,
2013-07-07 08:40:00,76.5,66.0,29.80,SW,215,9.0,15.0,70,0.00,,SCT250,0.01,VWS V14.01,2013-07-07 13:40:00,
2013-07-07 08:45:00,76.7,66.6,29.80,SW,219,6.0,8.0,71,0.00,,SCT250,0.01,VWS V14.01,2013-07-07 13:45:00,
2013-07-07 08:50:00,77.0,66.1,29.80,SW,220,6.0,9.0,69,0.00,,SCT250,0.01,VWS V14.01,2013-07-07 13:50:00,
2013-07-07 08:55:00,77.5,66.5,29.80,SW,225,5.0,6.0,69,0.00,,SCT250,0.01,VWS V14.01,2013-07-07 13:55:00,
2013-07-07 09:00:00,77.7,66.3,29.80,SW,222,6.0,8.0,68,0.00,,SCT250,0.01,VWS V14.01,2013-07-07 14:00:00,
2013-07-07 09:05:00,77.5,66.5,29.80,SW,231,7.0,10.0,69,0.00,,SCT250,0.01,VWS V14.01,2013-07-07 14:05:00,
2013-07-07 09:10:00,77.6,66.6,29.80,SSW,192,9.0,9.0,69,0.00,,SCT250,0.01,VWS V14.01,2013-07-07 14:10:00,
2013-07-07 09:15:00,77.9,66.5,29.80,SSW,206,7.0,10.0,68,0.00,,SCT250,0.01,VWS V14.01,2013-07-07 14:15:00,
2013-07-07 09:20:00,78.2,66.8,29.80,SSW,201,7.0,10.0,68,0.00,,SCT250,0.01,VWS V14.01,2013-07-07 14:20:00,
2013-07-07 09:25:00,78.5,66.6,29.80,SSW,203,9.0,11.0,67,0.00,,SCT250,0.01,VWS V14.01,2013-07-07 14:25:00,
2013-07-07 09:30:00,78.9,67.0,29.80,WSW,239,5.0,14.0,67,0.00,,SCT250,0.01,VWS V14.01,2013-07-07 14:30:00,
2013-07-07 09:35:00,79.3,67.0,29.80,SSW,197,9.0,11.0,66,0.00,,SCT250,0.01,VWS V14.01,2013-07-07 14:35:00,
2013-07-07 09:40:00,79.8,67.4,29.80,South,179,14.0,14.0,66,0.00,,SCT250,0.01,VWS V14.01,2013-07-07 14:40:00,
2013-07-07 09:45:00,80.1,67.3,29.80,SW,228,4.0,9.0,65,0.00,,SCT250,0.01,VWS V14.01,2013-07-07 14:45:00,
2013-07-07 09:50:00,80.3,67.5,29.80,SSW,192,6.0,9.0,65,0.00,,SCT250,0.01,VWS V14.01,2013-07-07 14:50:00,
2013-07-07 09:55:00,80.7,67.8,29.80,SSW,204,7.0,10.0,65,0.00,,SCT250,0.01,VWS V14.01,2013-07-07 14:55:00,
2013-07-07 10:00:00,81.0,67.2,29.80,SW,223,4.0,11.0,63,0.00,,SCT250,0.01,VWS V14.01,2013-07-07 15:00:00,
2013-07-07 10:05:00,81.3,67.5,29.80,SW,235,7.0,7.0,63,0.00,,SCT250,0.01,VWS V14.01,2013-07-07 15:05:00,
2013-07-07 10:10:00,81.5,67.7,29.81,South,185,7.0,13.0,63,0.00,,SCT250,0.01,VWS V14.01,2013-07-07 15:10:00,
2013-07-07 10:15:00,81.8,67.1,29.81,SW,214,5.0,14.0,61,0.00,,SCT250,0.01,VWS V14.01,2013-07-07 15:15:00,
2013-07-07 10:20:00,82.0,67.2,29.81,WSW,237,8.0,11.0,61,0.00,,SCT250,0.01,VWS V14.01,2013-07-07 15:20:00,
2013-07-07 10:25:00,82.2,67.9,29.81,SW,218,6.0,14.0,62,0.00,,SCT250,0.01,VWS V14.01,2013-07-07 15:25:00,
2013-07-07 10:30:00,82.4,67.6,29.80,SW,226,6.0,7.0,61,0.00,,SCT250,0.01,VWS V14.01,2013-07-07 15:30:00,
2013-07-07 10:35:00,82.6,67.8,29.80,South,182,3.0,7.0,61,0.00,,SCT250,0.01,VWS V14.01,2013-07-07 15:35:00,
2013-07-07 10:40:00,82.9,67.6,29.80,SW,234,8.0,14.0,60,0.00,,SCT250,0.01,VWS V14.01,2013-07-07 15:40:00,
2013-07-07 10:45:00,82.9,67.1,29.80,SW,217,6.0,9.0,59,0.00,,SCT250,0.01,VWS V14.01,2013-07-07 15:45:00,
2013-07-07 10:50:00,83.2,67.9,29.80,SW,231,9.0,11.0,60,0.00,,SCT250,0.01,VWS V14.01,2013-07-07 15:50:00,
2013-07-07 10:55:00,83.2,67.9,29.80,SW,233,6.0,10.0,60,0.00,,SCT250,0.01,VWS V14.01,2013-07-07 15:55:00,
2013-07-07 11:00:00,83.6,68.3,29.80,WSW,249,7.0,12.0,60,0.00,,SCT250,0.01,VWS V14.01,2013-07-07 16:00:00,
2013-07-07 11:05:00,83.8,68.9,29.80,SW,235,6.0,8.0,61,0.00,,SCT250,0.01,VWS V14.01,2013-07-07 16:05:00,
2013-07-07 11:10:00,83.9,68.1,29.80,SW,224,5.0,10.0,59,0.00,,SCT250,0.01,VWS V14.01,2013-07-07 16:10:00,
2013-07-07 11:15:00,83.8,68.0,29.80,SSE,159,4.0,11.0,59,0.00,,SCT250,0.01,VWS V14.01,2013-07-07 16:15:00,
2013-07-07 11:20:00,84.3,68.9,29.80,SW,221,8.0,10.0,60,0.00,,SCT250,0.01,VWS V14.01,2013-07-07 16:20:00,
2013-07-07 11:25:00,84.5,68.6,29.80,SSW,211,7.0,8.0,59,0.00,,SCT250,0.01,VWS V14.01,2013-07-07 16:25:00,
2013-07-07 11:30:00,84.2,68.8,29.80,SW,220,13.0,13.0,60,0.00,,SCT250,0.01,VWS V14.01,2013-07-07 16:30:00,
2013-07-07 11:35:00,84.2,68.8,29.80,SW,226,5.0,9.0,60,0.00,,SCT250,0.01,VWS V14.01,2013-07-07 16:35:00,
2013-07-07 11:40:00,84.0,68.1,29.80,South,188,6.0,9.0,59,0.00,,BKN250,0.01,VWS V14.01,2013-07-07 16:40:00,
2013-07-07 11:45:00,83.9,69.5,29.80,WSW,248,7.0,7.0,62,0.00,,BKN250,0.01,VWS V14.01,2013-07-07 16:45:00,
2013-07-07 11:50:00,83.8,68.4,29.80,SW,224,4.0,11.0,60,0.00,,BKN250,0.01,VWS V14.01,2013-07-07 16:50:00,
2013-07-07 11:56:00,84.1,68.7,29.80,SW,218,4.0,11.0,60,0.00,,BKN250,0.01,VWS V14.01,2013-07-07 16:56:00,
2013-07-07 12:01:00,84.4,70.0,29.80,SW,214,4.0,9.0,62,0.00,,BKN250,0.01,VWS V14.01,2013-07-07 17:01:00,
2013-07-07 12:06:00,84.6,68.7,29.80,WSW,239,5.0,10.0,59,0.00,,BKN250,0.01,VWS V14.01,2013-07-07 17:06:00,
2013-07-07 12:11:00,85.0,69.6,29.80,WSW,245,6.0,9.0,60,0.00,,BKN250,0.01,VWS V14.01,2013-07-07 17:11:00,
2013-07-07 12:16:00,85.0,68.1,29.80,SW,224,4.0,7.0,57,0.00,,BKN250,0.01,VWS V14.01,2013-07-07 17:16:00,
2013-07-07 12:21:00,85.7,68.7,29.80,SW,215,4.0,9.0,57,0.00,,BKN250,0.01,VWS V14.01,2013-07-07 17:21:00,
2013-07-07 12:26:00,86.2,68.2,29.80,SW,215,11.0,11.0,55,0.00,,BKN250,0.01,VWS V14.01,2013-07-07 17:26:00,
2013-07-07 12:54:00,86.0,68.0,29.79,SW,231,5.0,8.0,55,0.00,,BKN250,0.01,VWS V14.01,2013-07-07 17:54:00,
2013-07-07 12:59:00,85.8,67.8,29.80,SSW,212,5.0,7.0,55,0.00,,BKN250,0.01,VWS V14.01,2013-07-07 17:59:00,
2013-07-07 13:04:00,85.6,67.6,29.79,SW,228,6.0,7.0,55,0.00,,BKN250,0.01,VWS V14.01,2013-07-07 18:04:00,
2013-07-07 13:09:00,85.7,68.2,29.80,SSW,200,7.0,7.0,56,0.00,,BKN250,0.01,VWS V14.01,2013-07-07 18:09:00,
2013-07-07 13:14:00,85.9,67.9,29.80,SW,233,7.0,9.0,55,0.00,,BKN250,0.01,VWS V14.01,2013-07-07 18:14:00,
2013-07-07 13:19:00,86.5,69.0,29.79,SSW,194,8.0,9.0,56,0.00,,BKN250,0.01,VWS V14.01,2013-07-07 18:19:00,
2013-07-07 13:24:00,86.9,68.8,29.79,SSW,194,9.0,12.0,55,0.00,,BKN250,0.01,VWS V14.01,2013-07-07 18:24:00,
2013-07-07 13:29:00,87.1,69.5,29.79,SW,235,4.0,7.0,56,0.00,,BKN250,0.01,VWS V14.01,2013-07-07 18:29:00,
2013-07-07 13:34:00,87.6,70.0,29.79,SW,231,3.0,6.0,56,0.00,,BKN250,0.01,VWS V14.01,2013-07-07 18:34:00,
2013-07-07 13:39:00,88.2,70.0,29.79,SSW,208,8.0,15.0,55,0.00,,BKN250,0.01,VWS V14.01,2013-07-07 18:39:00,
2013-07-07 13:44:00,88.3,68.5,29.79,SSW,201,7.0,13.0,52,0.00,,BKN250,0.01,VWS V14.01,2013-07-07 18:44:00,
2013-07-07 13:49:00,88.3,68.5,29.79,SW,217,5.0,9.0,52,0.00,,BKN250,0.01,VWS V14.01,2013-07-07 18:49:00,
2013-07-07 13:54:00,88.2,69.5,29.79,SSW,201,6.0,11.0,54,0.00,,BKN250,0.01,VWS V14.01,2013-07-07 18:54:00,
2013-07-07 13:59:00,88.2,68.9,29.79,SW,226,4.0,9.0,53,0.00,,BKN250,0.01,VWS V14.01,2013-07-07 18:59:00,
2013-07-07 14:04:00,88.4,69.1,29.80,SSW,199,7.0,9.0,53,0.00,,BKN250,0.01,VWS V14.01,2013-07-07 19:04:00,
2013-07-07 14:09:00,88.6,68.7,29.80,South,187,9.0,12.0,52,0.00,,BKN250,0.01,VWS V14.01,2013-07-07 19:09:00,
2013-07-07 14:14:00,88.6,68.2,29.80,South,174,10.0,11.0,51,0.00,,BKN250,0.01,VWS V14.01,2013-07-07 19:14:00,
2013-07-07 14:19:00,88.5,69.8,29.79,SW,218,5.0,15.0,54,0.00,,BKN250,0.01,VWS V14.01,2013-07-07 19:19:00,
2013-07-07 14:24:00,88.7,68.8,29.80,SSW,199,8.0,16.0,52,0.00,,BKN250,0.01,VWS V14.01,2013-07-07 19:24:00,
2013-07-07 14:29:00,88.4,69.7,29.80,SSW,197,7.0,11.0,54,0.00,,BKN250,0.01,VWS V14.01,2013-07-07 19:29:00,
2013-07-07 14:34:00,88.4,70.2,29.80,SW,218,5.0,6.0,55,0.00,,BKN250,0.01,VWS V14.01,2013-07-07 19:34:00,
2013-07-07 14:39:00,88.6,70.4,29.80,SSW,193,4.0,8.0,55,0.00,,BKN250,0.01,VWS V14.01,2013-07-07 19:39:00,
2013-07-07 14:44:00,88.9,69.6,29.80,WSW,245,4.0,8.0,53,0.00,,BKN250,0.01,VWS V14.01,2013-07-07 19:44:00,
2013-07-07 14:50:00,88.9,69.6,29.80,South,190,6.0,10.0,53,0.00,,BKN250,0.01,VWS V14.01,2013-07-07 19:50:00,
2013-07-07 14:55:00,89.3,69.4,29.80,South,175,8.0,8.0,52,0.00,,BKN250,0.01,VWS V14.01,2013-07-07 19:55:00,
2013-07-07 15:00:00,89.3,68.8,29.80,SW,216,8.0,16.0,51,0.00,,BKN250,0.01,VWS V14.01,2013-07-07 20:00:00,
2013-07-07 15:05:00,89.5,70.7,29.80,SSW,204,4.0,10.0,54,0.00,,BKN250,0.01,VWS V14.01,2013-07-07 20:05:00,
2013-07-07 15:10:00,89.4,69.5,29.79,South,181,7.0,9.0,52,0.00,,BKN250,0.01,VWS V14.01,2013-07-07 20:10:00,
2013-07-07 15:15:00,89.4,68.9,29.79,SW,220,10.0,12.0,51,0.00,,BKN250,0.01,VWS V14.01,2013-07-07 20:15:00,
2013-07-07 15:20:00,89.1,70.3,29.79,SSW,213,5.0,8.0,54,0.00,,BKN250,0.01,VWS V14.01,2013-07-07 20:20:00,
2013-07-07 15:25:00,88.8,69.5,29.79,South,191,7.0,11.0,53,0.00,,BKN250,0.01,VWS V14.01,2013-07-07 20:25:00,
2013-07-07 15:30:00,88.9,69.6,29.79,South,189,4.0,4.0,53,0.00,,BKN250,0.01,VWS V14.01,2013-07-07 20:30:00,
2013-07-07 15:35:00,88.8,68.9,29.79,South,183,6.0,9.0,52,0.00,,BKN250,0.01,VWS V14.01,2013-07-07 20:35:00,
2013-07-07 15:40:00,88.7,69.9,29.79,SW,218,2.0,6.0,54,0.00,,BKN250,0.01,VWS V14.01,2013-07-07 20:40:00,
2013-07-07 15:45:00,88.9,70.1,29.79,SW,228,4.0,5.0,54,0.00,,BKN250,0.01,VWS V14.01,2013-07-07 20:45:00,
2013-07-07 15:50:00,89.5,70.1,29.79,SSW,212,3.0,6.0,53,0.00,,BKN250,0.01,VWS V14.01,2013-07-07 20:50:00,
2013-07-07 15:55:00,89.6,69.7,29.79,SSW,204,5.0,7.0,52,0.00,,BKN250,0.01,VWS V14.01,2013-07-07 20:55:00,
2013-07-07 16:00:00,89.3,70.5,29.79,South,187,5.0,10.0,54,0.00,,BKN250,0.01,VWS V14.01,2013-07-07 21:00:00,
2013-07-07 16:05:00,89.6,69.7,29.79,SW,220,5.0,5.0,52,0.00,,BKN250,0.01,VWS V14.01,2013-07-07 21:05:00,
2013-07-07 16:10:00,89.6,69.7,29.79,SW,228,4.0,7.0,52,0.00,,BKN250,0.01,VWS V14.01,2013-07-07 21:10:00,
2013-07-07 16:15:00,89.9,71.0,29.79,SSW,211,5.0,5.0,54,0.00,,BKN250,0.01,VWS V14.01,2013-07-07 21:15:00,
2013-07-07 16:20:00,90.1,69.6,29.79,SW,219,6.0,8.0,51,0.00,,BKN250,0.01,VWS V14.01,2013-07-07 21:20:00,
2013-07-07 16:25:00,90.1,70.7,29.79,SSW,204,4.0,10.0,53,0.00,,BKN250,0.01,VWS V14.01,2013-07-07 21:25:00,
2013-07-07 16:30:00,90.5,70.5,29.79,SSW,197,6.0,8.0,52,0.00,,BKN250,0.01,VWS V14.01,2013-07-07 21:30:00,
2013-07-07 16:35:00,90.6,69.4,29.79,SSW,209,5.0,12.0,50,0.00,,OVC250,0.01,VWS V14.01,2013-07-07 21:35:00,
2013-07-07 16:40:00,90.5,70.5,29.79,SSW,192,7.0,7.0,52,0.00,,OVC250,0.01,VWS V14.01,2013-07-07 21:40:00,
2013-07-07 16:46:00,90.4,69.8,29.79,SW,222,4.0,8.0,51,0.00,,OVC250,0.01,VWS V14.01,2013-07-07 21:46:00,
2013-07-07 16:51:00,90.4,70.4,29.79,South,190,5.0,8.0,52,0.00,,OVC250,0.01,VWS V14.01,2013-07-07 21:51:00,
2013-07-07 16:56:00,90.4,70.9,29.78,SSW,202,5.0,7.0,53,0.00,,OVC250,0.01,VWS V14.01,2013-07-07 21:56:00,
2013-07-07 17:01:00,90.8,71.3,29.78,SW,233,3.0,7.0,53,0.00,,OVC250,0.01,VWS V14.01,2013-07-07 22:01:00,
2013-07-07 17:06:00,91.1,71.0,29.78,SSW,204,7.0,10.0,52,0.00,,OVC250,0.01,VWS V14.01,2013-07-07 22:06:00,
2013-07-07 17:11:00,91.1,69.9,29.78,SSE,161,7.0,11.0,50,0.00,,OVC250,0.01,VWS V14.01,2013-07-07 22:11:00,
2013-07-07 17:16:00,90.8,70.8,29.78,South,191,8.0,11.0,52,0.00,,OVC250,0.01,VWS V14.01,2013-07-07 22:16:00,
2013-07-07 17:21:00,90.6,71.1,29.78,SSW,205,6.0,7.0,53,0.00,,OVC250,0.01,VWS V14.01,2013-07-07 22:21:00,
2013-07-07 17:26:00,90.6,71.1,29.78,South,189,9.0,10.0,53,0.00,,OVC250,0.01,VWS V14.01,2013-07-07 22:26:00,
2013-07-07 17:31:00,90.6,70.0,29.78,SW,224,7.0,9.0,51,0.00,,OVC250,0.01,VWS V14.01,2013-07-07 22:31:00,
2013-07-07 17:36:00,90.6,69.4,29.78,SSW,206,6.0,10.0,50,0.00,,OVC250,0.01,VWS V14.01,2013-07-07 22:36:00,
2013-07-07 17:41:00,90.5,69.3,29.77,SSW,208,10.0,11.0,50,0.00,,BKN250,0.01,VWS V14.01,2013-07-07 22:41:00,
2013-07-07 17:46:00,90.4,70.4,29.77,SW,214,3.0,9.0,52,0.00,,BKN250,0.01,VWS V14.01,2013-07-07 22:46:00,
2013-07-07 17:51:00,90.3,70.9,29.77,South,177,4.0,5.0,53,0.00,,BKN250,0.01,VWS V14.01,2013-07-07 22:51:00,
2013-07-07 17:56:00,90.4,70.4,29.77,SSW,201,5.0,9.0,52,0.00,,BKN250,0.01,VWS V14.01,2013-07-07 22:56:00,
2013-07-07 18:01:00,90.3,70.9,29.77,SSW,192,6.0,7.0,53,0.00,,BKN250,0.01,VWS V14.01,2013-07-07 23:01:00,
2013-07-07 18:06:00,90.3,71.9,29.77,South,188,4.0,6.0,55,0.00,,BKN250,0.01,VWS V14.01,2013-07-07 23:06:00,
2013-07-07 18:11:00,90.4,71.5,29.77,SW,224,3.0,4.0,54,0.00,,BKN250,0.01,VWS V14.01,2013-07-07 23:11:00,
2013-07-07 18:16:00,90.4,70.9,29.77,SSW,212,4.0,7.0,53,0.00,,BKN250,0.01,VWS V14.01,2013-07-07 23:16:00,
2013-07-07 18:21:00,90.4,71.5,29.77,South,179,3.0,5.0,54,0.00,,BKN250,0.01,VWS V14.01,2013-07-07 23:21:00,
2013-07-07 18:26:00,90.3,71.4,29.77,South,186,6.0,9.0,54,0.00,,BKN250,0.01,VWS V14.01,2013-07-07 23:26:00,
2013-07-07 18:31:00,90.2,71.9,29.76,SSE,163,6.0,7.0,55,0.00,,BKN250,0.01,VWS V14.01,2013-07-07 23:31:00,
2013-07-07 18:36:00,90.0,71.1,29.76,South,186,5.0,9.0,54,0.00,,BKN250,0.01,VWS V14.01,2013-07-07 23:36:00,
2013-07-07 18:41:00,89.9,72.6,29.76,South,185,5.0,6.0,57,0.00,,BKN250,0.01,VWS V14.01,2013-07-07 23:41:00,
2013-07-07 18:46:00,89.8,73.1,29.76,SE,138,5.0,5.0,58,0.00,,BKN250,0.01,VWS V14.01,2013-07-07 23:46:00,
2013-07-07 18:51:00,89.7,72.4,29.76,South,179,3.0,5.0,57,0.00,,BKN250,0.01,VWS V14.01,2013-07-07 23:51:00,
2013-07-07 18:56:00,89.6,71.8,29.76,South,187,5.0,6.0,56,0.00,,BKN250,0.01,VWS V14.01,2013-07-07 23:56:00,
2013-07-07 19:01:00,89.5,71.7,29.76,SSW,210,4.0,7.0,56,0.00,,BKN250,0.01,VWS V14.01,2013-07-08 00:01:00,
2013-07-07 19:06:00,89.4,70.6,29.76,South,185,4.0,8.0,54,0.00,,BKN250,0.01,VWS V14.01,2013-07-08 00:06:00,
2013-07-07 19:12:00,89.4,71.1,29.76,South,185,5.0,8.0,55,0.00,,BKN250,0.01,VWS V14.01,2013-07-08 00:12:00,
2013-07-07 19:17:00,89.2,70.9,29.76,SW,214,4.0,6.0,55,0.00,,BKN250,0.01,VWS V14.01,2013-07-08 00:17:00,
2013-07-07 19:22:00,89.0,70.2,29.75,SSW,208,6.0,7.0,54,0.00,,BKN250,0.01,VWS V14.01,2013-07-08 00:22:00,
2013-07-07 19:27:00,88.7,71.5,29.75,South,174,5.0,6.0,57,0.00,,BKN250,0.01,VWS V14.01,2013-07-08 00:27:00,
2013-07-07 19:32:00,88.5,70.8,29.75,South,183,5.0,6.0,56,0.00,,BKN250,0.01,VWS V14.01,2013-07-08 00:32:00,
2013-07-07 19:37:00,88.3,71.7,29.75,South,172,6.0,6.0,58,0.00,,BKN250,0.01,VWS V14.01,2013-07-08 00:37:00,
2013-07-07 19:42:00,88.0,71.4,29.75,SSE,155,5.0,6.0,58,0.00,,BKN250,0.01,VWS V14.01,2013-07-08 00:42:00,
2013-07-07 19:47:00,87.7,70.6,29.75,South,188,4.0,6.0,57,0.00,,BKN250,0.01,VWS V14.01,2013-07-08 00:47:00,
2013-07-07 19:52:00,87.5,70.4,29.75,South,183,4.0,7.0,57,0.00,,BKN250,0.01,VWS V14.01,2013-07-08 00:52:00,
2013-07-07 19:57:00,87.4,70.3,29.75,South,177,5.0,6.0,57,0.00,,BKN250,0.01,VWS V14.01,2013-07-08 00:57:00,
2013-07-07 20:02:00,87.3,70.2,29.75,SSW,212,5.0,7.0,57,0.00,,BKN250,0.01,VWS V14.01,2013-07-08 01:02:00,
2013-07-07 20:07:00,87.2,69.6,29.76,SW,219,4.0,7.0,56,0.00,,BKN250,0.01,VWS V14.01,2013-07-08 01:07:00,
2013-07-07 20:12:00,87.0,69.9,29.76,South,186,5.0,7.0,57,0.00,,BKN250,0.01,VWS V14.01,2013-07-08 01:12:00,
2013-07-07 20:17:00,86.6,70.1,29.76,South,179,5.0,6.0,58,0.00,,BKN250,0.01,VWS V14.01,2013-07-08 01:17:00,
2013-07-07 20:22:00,86.3,70.3,29.76,South,179,5.0,7.0,59,0.00,,BKN250,0.01,VWS V14.01,2013-07-08 01:22:00,
2013-07-07 20:27:00,86.0,70.0,29.77,South,178,5.0,7.0,59,0.00,,BKN250,0.01,VWS V14.01,2013-07-08 01:27:00,
2013-07-07 20:32:00,85.8,69.8,29.77,South,180,6.0,7.0,59,0.00,,BKN250,0.01,VWS V14.01,2013-07-08 01:32:00,
2013-07-07 20:37:00,85.7,69.7,29.77,SSE,164,5.0,8.0,59,0.00,,BKN250,0.01,VWS V14.01,2013-07-08 01:37:00,
2013-07-07 20:42:00,85.6,70.1,29.77,SSW,192,5.0,8.0,60,0.00,,BKN250,0.01,VWS V14.01,2013-07-08 01:42:00,
2013-07-07 20:47:00,85.3,70.3,29.78,SSE,162,5.0,6.0,61,0.00,,BKN250,0.01,VWS V14.01,2013-07-08 01:47:00,
2013-07-07 20:52:00,85.0,70.1,29.78,South,179,3.0,5.0,61,0.00,,BKN250,0.01,VWS V14.01,2013-07-08 01:52:00,
2013-07-07 20:57:00,84.8,69.9,29.78,South,185,5.0,8.0,61,0.00,,BKN250,0.01,VWS V14.01,2013-07-08 01:57:00,
2013-07-07 21:02:00,84.9,70.0,29.78,South,181,9.0,9.0,61,0.00,,BKN250,0.01,VWS V14.01,2013-07-08 02:02:00,
2013-07-07 21:07:00,85.0,70.1,29.79,South,177,4.0,7.0,61,0.00,,BKN250,0.01,VWS V14.01,2013-07-08 02:07:00,
2013-07-07 21:12:00,84.8,69.9,29.79,South,174,6.0,7.0,61,0.00,,BKN250,0.01,VWS V14.01,2013-07-08 02:12:00,
2013-07-07 21:17:00,84.8,69.9,29.79,SSW,194,4.0,5.0,61,0.00,,BKN250,0.01,VWS V14.01,2013-07-08 02:17:00,
2013-07-07 21:22:00,84.6,70.2,29.80,South,178,3.0,4.0,62,0.00,,BKN250,0.01,VWS V14.01,2013-07-08 02:22:00,
2013-07-07 21:27:00,84.5,70.1,29.81,South,180,3.0,4.0,62,0.00,,BKN250,0.01,VWS V14.01,2013-07-08 02:27:00,
2013-07-07 21:32:00,84.3,69.9,29.81,South,181,2.0,4.0,62,0.00,,BKN250,0.01,VWS V14.01,2013-07-08 02:32:00,
2013-07-07 21:37:00,84.2,69.8,29.81,SSW,194,2.0,4.0,62,0.00,,BKN250,0.01,VWS V14.01,2013-07-08 02:37:00,
2013-07-07 21:42:00,84.1,70.2,29.81,South,190,3.0,6.0,63,0.00,,OVC250,0.01,VWS V14.01,2013-07-08 02:42:00,
2013-07-07 21:47:00,83.9,70.0,29.81,South,188,3.0,4.0,63,0.00,,OVC250,0.01,VWS V14.01,2013-07-08 02:47:00,
2013-07-07 21:52:00,83.8,69.9,29.81,South,181,2.0,4.0,63,0.00,,OVC250,0.01,VWS V14.01,2013-07-08 02:52:00,
2013-07-07 21:57:00,83.6,70.1,29.81,South,177,5.0,5.0,64,0.00,,OVC250,0.01,VWS V14.01,2013-07-08 02:57:00,
2013-07-07 22:02:00,83.3,70.3,29.81,South,180,2.0,5.0,65,0.00,,OVC250,0.01,VWS V14.01,2013-07-08 03:02:00,
2013-07-07 22:07:00,83.1,70.1,29.81,South,187,4.0,5.0,65,0.00,,OVC250,0.01,VWS V14.01,2013-07-08 03:07:00,
2013-07-07 22:12:00,82.8,70.3,29.81,South,175,6.0,7.0,66,0.00,,OVC250,0.01,VWS V14.01,2013-07-08 03:12:00,
2013-07-07 22:17:00,82.8,70.3,29.81,South,172,6.0,7.0,66,0.00,,OVC250,0.01,VWS V14.01,2013-07-08 03:17:00,
2013-07-07 22:22:00,82.8,70.3,29.82,SSW,197,3.0,5.0,66,0.00,,OVC250,0.01,VWS V14.01,2013-07-08 03:22:00,
2013-07-07 22:27:00,82.7,70.2,29.82,SSW,201,3.0,5.0,66,0.00,,OVC250,0.01,VWS V14.01,2013-07-08 03:27:00,
2013-07-07 22:32:00,82.7,70.2,29.82,SSW,201,6.0,7.0,66,0.00,,OVC250,0.01,VWS V14.01,2013-07-08 03:32:00,
2013-07-07 22:38:00,82.7,70.2,29.82,South,189,4.0,7.0,66,0.00,,OVC250,0.01,VWS V14.01,2013-07-08 03:38:00,
2013-07-07 22:43:00,82.8,70.3,29.83,South,176,4.0,7.0,66,0.00,,OVC250,0.01,VWS V14.01,2013-07-08 03:43:00,
2013-07-07 22:48:00,82.7,70.2,29.83,SSW,192,3.0,8.0,66,0.00,,OVC250,0.01,VWS V14.01,2013-07-08 03:48:00,
2013-07-07 22:53:00,82.7,70.2,29.83,SSW,195,4.0,6.0,66,0.00,,OVC250,0.01,VWS V14.01,2013-07-08 03:53:00,
2013-07-07 22:58:00,82.7,70.2,29.83,SW,220,1.0,3.0,66,0.00,,OVC250,0.01,VWS V14.01,2013-07-08 03:58:00,
2013-07-07 23:01:00,82.6,70.1,29.83,SSW,199,2.0,3.0,66,0.00,,OVC250,0.01,VWS V14.01,2013-07-08 04:01:00,
2013-07-07 23:02:00,82.6,70.1,29.83,South,179,2.0,5.0,66,0.00,,OVC250,0.01,VWS V14.01,2013-07-08 04:02:00,
2013-07-07 23:07:00,82.5,70.0,29.83,SSW,193,2.0,2.0,66,0.00,,OVC250,0.01,VWS V14.01,2013-07-08 04:07:00,
2013-07-07 23:12:00,82.2,70.2,29.83,SSW,208,2.0,3.0,67,0.00,,OVC250,0.01,VWS V14.01,2013-07-08 04:12:00,
2013-07-07 23:17:00,82.0,70.0,29.83,SSW,206,0.0,1.0,67,0.00,,OVC250,0.01,VWS V14.01,2013-07-08 04:17:00,
2013-07-07 23:22:00,81.8,69.8,29.83,South,189,2.0,4.0,67,0.00,,OVC250,0.01,VWS V14.01,2013-07-08 04:22:00,
2013-07-07 23:27:00,81.6,70.0,29.83,South,177,4.0,4.0,68,0.00,,OVC250,0.01,VWS V14.01,2013-07-08 04:27:00,
2013-07-07 23:32:00,81.4,69.8,29.83,South,184,3.0,4.0,68,0.00,,OVC250,0.01,VWS V14.01,2013-07-08 04:32:00,
2013-07-07 23:37:00,81.3,69.7,29.84,South,191,3.0,4.0,68,0.00,,OVC250,0.01,VWS V14.01,2013-07-08 04:37:00,
2013-07-07 23:42:00,81.2,69.6,29.84,South,188,1.0,4.0,68,0.00,,OVC250,0.01,VWS V14.01,2013-07-08 04:42:00,
2013-07-07 23:47:00,81.1,69.6,29.84,South,174,0.0,2.0,68,0.00,,OVC250,0.01,VWS V14.01,2013-07-08 04:47:00,
2013-07-07 23:52:00,80.9,69.8,29.84,South,174,0.0,1.0,69,0.00,,OVC250,0.01,VWS V14.01,2013-07-08 04:52:00,
2013-07-07 23:57:00,80.8,69.7,29.84,South,174,1.0,2.0,69,0.00,,OVC250,0.01,VWS V14.01,2013-07-08 04:57:00,